| time (UTC) | temp F | wind direction | speed MPH | gust MPH | rain 1hr in | rain 24hr in | rain mn in | humidity % | barometer mb |
| 20260905091611 | 74 | 101 | 1.0 | 6.0 | 0.00 | 0.00 | 0.00 | 29 | 1016.4 |
| 20260905091116 | 75 | 125 | 2.0 | 7.0 | 0.00 | 0.00 | 0.00 | 28 | 1016.3 |
| 20260905090617 | 75 | 145 | 4.0 | 8.0 | 0.00 | 0.00 | 0.00 | 28 | 1016.2 |
| 20260905090126 | 75 | 151 | 4.0 | 8.0 | 0.00 | 0.00 | 0.00 | 28 | 1016.2 |
| 20260905085656 | 75 | 126 | 3.0 | 11.0 | 0.00 | 0.00 | 0.00 | 28 | 1016.1 |
| 20260905085136 | 75 | 136 | 4.0 | 10.0 | 0.00 | 0.00 | 0.00 | 27 | 1016.2 |
| 20260905084617 | 75 | 122 | 2.0 | 12.0 | 0.00 | 0.00 | 0.00 | 28 | 1016.1 |
| 20260905084126 | 75 | 195 | 5.0 | 12.0 | 0.00 | 0.00 | 0.00 | 28 | 1016.1 |
| 20260905083647 | 75 | 174 | 3.0 | 6.0 | 0.00 | 0.00 | 0.00 | 28 | 1016.0 |
| 20260905083115 | 75 | 130 | 2.0 | 5.0 | 0.00 | 0.00 | 0.00 | 28 | 1015.9 |
| 20260905082615 | 75 | 150 | 2.0 | 8.0 | 0.00 | 0.00 | 0.00 | 28 | 1015.9 |
| 20260905082116 | 75 | 143 | 3.0 | 8.0 | 0.00 | 0.00 | 0.00 | 28 | 1015.8 |
| 20260905081626 | 75 | 131 | 3.0 | 7.0 | 0.00 | 0.00 | 0.00 | 28 | 1015.8 |
| 20260905081126 | 76 | 200 | 2.0 | 11.0 | 0.00 | 0.00 | 0.00 | 27 | 1015.9 |
| 20260905080626 | 76 | 157 | 5.0 | 13.0 | 0.00 | 0.00 | 0.00 | 27 | 1015.9 |
| 20260905080115 | 76 | 152 | 5.0 | 13.0 | 0.00 | 0.00 | 0.00 | 27 | 1015.9 |
| 20260905075616 | 76 | 121 | 4.0 | 8.0 | 0.00 | 0.00 | 0.00 | 27 | 1015.8 |
| 20260905075124 | 76 | 157 | 4.0 | 11.0 | 0.00 | 0.00 | 0.00 | 27 | 1015.9 |
| 20260905074626 | 76 | 140 | 4.0 | 9.0 | 0.00 | 0.00 | 0.00 | 27 | 1015.8 |
| 20260905074134 | 76 | 146 | 3.0 | 7.0 | 0.00 | 0.00 | 0.00 | 27 | 1015.8 |
| 20260905073614 | 77 | 165 | 3.0 | 15.0 | 0.00 | 0.00 | 0.00 | 27 | 1015.6 |
| 20260905073136 | 77 | 146 | 4.0 | 15.0 | 0.00 | 0.00 | 0.00 | 26 | 1015.6 |
| 20260905072624 | 77 | 184 | 6.0 | 15.0 | 0.00 | 0.00 | 0.00 | 27 | 1015.4 |
| 20260905072125 | 77 | 152 | 2.0 | 11.0 | 0.00 | 0.00 | 0.00 | 27 | 1015.4 |
| 20260905071633 | 77 | 207 | 4.0 | 11.0 | 0.00 | 0.00 | 0.00 | 27 | 1015.3 |
| 20260905071115 | 77 | 114 | 2.0 | 8.0 | 0.00 | 0.00 | 0.00 | 27 | 1015.2 |
| 20260905070622 | 77 | 129 | 4.0 | 8.0 | 0.00 | 0.00 | 0.00 | 27 | 1015.2 |
| 20260905070123 | 77 | 134 | 4.0 | 7.0 | 0.00 | 0.00 | 0.00 | 26 | 1015.1 |
| 20260905065632 | 77 | 129 | 4.0 | 7.0 | 0.00 | 0.00 | 0.00 | 27 | 1015.0 |
| 20260905065112 | 77 | 98 | 3.0 | 10.0 | 0.00 | 0.00 | 0.00 | 26 | 1015.0 |
| 20260905064613 | 78 | 141 | 4.0 | 10.0 | 0.00 | 0.00 | 0.00 | 26 | 1015.0 |
| 20260905064122 | 77 | 133 | 3.0 | 8.0 | 0.00 | 0.00 | 0.00 | 26 | 1014.9 |
| 20260905063624 | 77 | 113 | 3.0 | 8.0 | 0.00 | 0.00 | 0.00 | 26 | 1014.9 |
| 20260905063132 | 77 | 146 | 3.0 | 8.0 | 0.00 | 0.00 | 0.00 | 26 | 1014.7 |
| 20260905062122 | 78 | 146 | 3.0 | 11.0 | 0.00 | 0.00 | 0.00 | 26 | 1014.7 |
| 20260905061624 | 78 | 173 | 2.0 | 15.0 | 0.00 | 0.00 | 0.00 | 26 | 1014.5 |
| 20260905061133 | 78 | 197 | 4.0 | 15.0 | 0.00 | 0.00 | 0.00 | 26 | 1014.4 |
| 20260905060615 | 78 | 128 | 3.0 | 7.0 | 0.00 | 0.00 | 0.00 | 25 | 1014.4 |
| 20260905060116 | 78 | 124 | 3.0 | 10.0 | 0.00 | 0.00 | 0.00 | 25 | 1014.3 |
| 20260905055626 | 78 | 105 | 5.0 | 10.0 | 0.00 | 0.00 | 0.00 | 25 | 1014.2 |
| 20260905055127 | 78 | 186 | 4.0 | 7.0 | 0.00 | 0.00 | 0.00 | 25 | 1014.2 |
| 20260905054636 | 78 | 153 | 2.0 | 7.0 | 0.00 | 0.00 | 0.00 | 25 | 1014.2 |
| 20260905054117 | 79 | 136 | 2.0 | 13.0 | 0.00 | 0.00 | 0.00 | 25 | 1014.1 |
| 20260905053620 | 79 | 199 | 5.0 | 13.0 | 0.00 | 0.00 | 0.00 | 24 | 1014.0 |
| 20260905053127 | 79 | 184 | 5.0 | 13.0 | 0.00 | 0.00 | 0.00 | 24 | 1014.1 |
| 20260905052629 | 79 | 139 | 7.0 | 13.0 | 0.00 | 0.00 | 0.00 | 24 | 1014.1 |
| 20260905052137 | 79 | 190 | 4.0 | 10.0 | 0.00 | 0.00 | 0.00 | 24 | 1013.9 |
| 20260905051639 | 79 | 174 | 5.0 | 10.0 | 0.00 | 0.00 | 0.00 | 24 | 1013.9 |
| 20260905051119 | 79 | 153 | 3.0 | 10.0 | 0.00 | 0.00 | 0.00 | 24 | 1013.9 |
| 20260905050628 | 79 | 155 | 3.0 | 9.0 | 0.00 | 0.00 | 0.00 | 24 | 1013.9 |
| 20260905050156 | 79 | 106 | 4.0 | 9.0 | 0.00 | 0.00 | 0.00 | 24 | 1013.9 |
| 20260905045616 | 78 | 181 | 2.0 | 8.0 | 0.00 | 0.00 | 0.00 | 24 | 1013.9 |
| 20260905045118 | 78 | 137 | 3.0 | 8.0 | 0.00 | 0.00 | 0.00 | 24 | 1013.9 |
| 20260905044626 | 79 | 134 | 1.0 | 5.0 | 0.00 | 0.00 | 0.00 | 23 | 1013.8 |
| 20260905044127 | 79 | 139 | 2.0 | 7.0 | 0.00 | 0.00 | 0.00 | 23 | 1013.7 |
| 20260905043635 | 79 | 208 | 4.0 | 8.0 | 0.00 | 0.00 | 0.00 | 24 | 1013.8 |
| 20260905043115 | 79 | 141 | 2.0 | 8.0 | 0.00 | 0.00 | 0.00 | 24 | 1013.7 |
| 20260905042616 | 79 | 139 | 2.0 | 5.0 | 0.00 | 0.00 | 0.00 | 24 | 1013.7 |
| 20260905042125 | 79 | 110 | 2.0 | 10.0 | 0.00 | 0.00 | 0.00 | 24 | 1013.7 |
| 20260905041627 | 80 | 129 | 4.0 | 10.0 | 0.00 | 0.00 | 0.00 | 23 | 1013.7 |
| 20260905041135 | 79 | 160 | 4.0 | 10.0 | 0.00 | 0.00 | 0.00 | 23 | 1013.6 |
| 20260905040615 | 80 | 138 | 4.0 | 7.0 | 0.00 | 0.00 | 0.00 | 23 | 1013.6 |
| 20260905040123 | 80 | 129 | 4.0 | 9.0 | 0.00 | 0.00 | 0.00 | 24 | 1013.6 |
| 20260905035624 | 80 | 191 | 5.0 | 12.0 | 0.00 | 0.00 | 0.00 | 23 | 1013.6 |
| 20260905035134 | 80 | 148 | 3.0 | 12.0 | 0.00 | 0.00 | 0.00 | 23 | 1013.6 |
| 20260905034614 | 80 | 198 | 3.0 | 11.0 | 0.00 | 0.00 | 0.00 | 24 | 1013.4 |
| 20260905034116 | 80 | 139 | 3.0 | 9.0 | 0.00 | 0.00 | 0.00 | 24 | 1013.3 |
| 20260905033625 | 80 | 148 | 4.0 | 9.0 | 0.00 | 0.00 | 0.00 | 24 | 1013.3 |
| 20260905033127 | 80 | 168 | 4.0 | 8.0 | 0.00 | 0.00 | 0.00 | 25 | 1013.3 |
| 20260905032636 | 80 | 147 | 3.0 | 8.0 | 0.00 | 0.00 | 0.00 | 25 | 1013.3 |
| 20260905032137 | 80 | 186 | 2.0 | 7.0 | 0.00 | 0.00 | 0.00 | 25 | 1013.2 |
| 20260905031617 | 80 | 134 | 2.0 | 6.0 | 0.00 | 0.00 | 0.00 | 25 | 1013.1 |
| 20260905031127 | 80 | 147 | 2.0 | 6.0 | 0.00 | 0.00 | 0.00 | 25 | 1013.1 |
| 20260905030629 | 80 | 154 | 2.0 | 6.0 | 0.00 | 0.00 | 0.00 | 25 | 1012.9 |
| 20260905030137 | 80 | 141 | 2.0 | 5.0 | 0.00 | 0.00 | 0.00 | 26 | 1012.9 |
| 20260905025618 | 80 | 116 | 3.0 | 5.0 | 0.00 | 0.00 | 0.00 | 25 | 1012.8 |
| 20260905025147 | 80 | 162 | 1.0 | 5.0 | 0.00 | 0.00 | 0.00 | 25 | 1012.7 |
| 20260905024628 | 80 | 128 | 2.0 | 5.0 | 0.00 | 0.00 | 0.00 | 25 | 1012.6 |
| 20260905024137 | 81 | 155 | 2.0 | 5.0 | 0.00 | 0.00 | 0.00 | 25 | 1012.5 |
| 20260905023617 | 81 | 189 | 2.0 | 5.0 | 0.00 | 0.00 | 0.00 | 25 | 1012.5 |
| 20260905023120 | 81 | 165 | 3.0 | 5.0 | 0.00 | 0.00 | 0.00 | 24 | 1012.4 |
| 20260905022628 | 81 | 105 | 2.0 | 5.0 | 0.00 | 0.00 | 0.00 | 24 | 1012.3 |
| 20260905022129 | 81 | 149 | 2.0 | 5.0 | 0.00 | 0.00 | 0.00 | 24 | 1012.2 |
| 20260905021657 | 82 | 189 | 2.0 | 6.0 | 0.00 | 0.00 | 0.00 | 24 | 1012.2 |
| 20260905021117 | 82 | 180 | 3.0 | 8.0 | 0.00 | 0.00 | 0.00 | 23 | 1012.1 |
| 20260905020619 | 82 | 174 | 4.0 | 8.0 | 0.00 | 0.00 | 0.00 | 23 | 1012.2 |
| 20260905020126 | 82 | 117 | 2.0 | 7.0 | 0.00 | 0.00 | 0.00 | 23 | 1012.1 |
| 20260905015627 | 83 | 189 | 3.0 | 10.0 | 0.00 | 0.00 | 0.00 | 23 | 1012.1 |
| 20260905015155 | 83 | 174 | 4.0 | 10.0 | 0.00 | 0.00 | 0.00 | 22 | 1012.1 |
| 20260905014636 | 84 | 237 | 3.0 | 9.0 | 0.00 | 0.00 | 0.00 | 22 | 1012.1 |
| 20260905014123 | 84 | 208 | 4.0 | 9.0 | 0.00 | 0.00 | 0.00 | 21 | 1012.1 |
| 20260905013624 | 85 | 151 | 3.0 | 8.0 | 0.00 | 0.00 | 0.00 | 21 | 1012.1 |
| 20260905013126 | 85 | 212 | 3.0 | 9.0 | 0.00 | 0.00 | 0.00 | 21 | 1012.1 |
| 20260905012634 | 85 | 212 | 4.0 | 9.0 | 0.00 | 0.00 | 0.00 | 20 | 1012.1 |
| 20260905012116 | 86 | 210 | 3.0 | 10.0 | 0.00 | 0.00 | 0.00 | 21 | 1012.1 |
| 20260905011636 | 86 | 202 | 2.0 | 6.0 | 0.00 | 0.00 | 0.00 | 20 | 1012.1 |
| 20260905011123 | 87 | 128 | 3.0 | 9.0 | 0.00 | 0.00 | 0.00 | 20 | 1012.1 |
| 20260905010626 | 87 | 204 | 1.0 | 9.0 | 0.00 | 0.00 | 0.00 | 20 | 1012.1 |
| 20260905010114 | 87 | 191 | 3.0 | 11.0 | 0.00 | 0.00 | 0.00 | 20 | 1012.1 |
| 20260905005615 | 87 | 219 | 3.0 | 11.0 | 0.00 | 0.00 | 0.00 | 19 | 1012.0 |
| 20260905005116 | 88 | 253 | 1.0 | 9.0 | 0.00 | 0.00 | 0.00 | 19 | 1012.0 |
| 20260905004624 | 88 | 228 | 2.0 | 9.0 | 0.00 | 0.00 | 0.00 | 19 | 1012.0 |
| 20260905004125 | 88 | 153 | 1.0 | 8.0 | 0.00 | 0.00 | 0.00 | 19 | 1011.9 |
| 20260905003626 | 88 | 213 | 3.0 | 8.0 | 0.00 | 0.00 | 0.00 | 19 | 1012.0 |
| 20260905002617 | 88 | 124 | 4.0 | 13.0 | 0.00 | 0.00 | 0.00 | 18 | 1011.9 |
| 20260905002146 | 88 | 235 | 7.0 | 13.0 | 0.00 | 0.00 | 0.00 | 17 | 1011.9 |
| 20260905001647 | 88 | 257 | 3.0 | 12.0 | 0.00 | 0.00 | 0.00 | 18 | 1011.9 |
| 20260905001133 | 88 | 203 | 4.0 | 11.0 | 0.00 | 0.00 | 0.00 | 17 | 1011.9 |
| 20260905000614 | 88 | 214 | 4.0 | 13.0 | 0.00 | 0.00 | 0.00 | 17 | 1012.0 |
| 20260905000116 | 88 | 144 | 6.0 | 18.0 | 0.00 | 0.00 | 0.00 | 16 | 1012.0 |
| 20260904235624 | 88 | 227 | 9.0 | 18.0 | 0.00 | 0.00 | 0.00 | 17 | 1012.0 |
| 20260904235153 | 88 | 255 | 8.0 | 14.0 | 0.00 | 0.00 | 0.00 | 16 | 1012.0 |
| 20260904234636 | 89 | 176 | 5.0 | 12.0 | 0.00 | 0.00 | 0.00 | 16 | 1012.0 |
| 20260904234116 | 89 | 212 | 3.0 | 12.0 | 0.00 | 0.00 | 0.00 | 17 | 1012.1 |
| 20260904233626 | 89 | 153 | 5.0 | 9.0 | 0.00 | 0.00 | 0.00 | 16 | 1012.0 |
| 20260904233147 | 89 | 155 | 2.0 | 14.0 | 0.00 | 0.00 | 0.00 | 17 | 1012.0 |
| 20260904232614 | 88 | 215 | 4.0 | 14.0 | 0.00 | 0.00 | 0.00 | 16 | 1012.1 |
| 20260904232114 | 89 | 202 | 4.0 | 8.0 | 0.00 | 0.00 | 0.00 | 16 | 1012.0 |
| 20260904231621 | 89 | 4 | 2.0 | 10.0 | 0.00 | 0.00 | 0.00 | 17 | 1012.1 |
| 20260904231124 | 88 | 137 | 4.0 | 13.0 | 0.00 | 0.00 | 0.00 | 16 | 1012.0 |
| 20260904230626 | 88 | 209 | 5.0 | 13.0 | 0.00 | 0.00 | 0.00 | 16 | 1012.2 |
| 20260904230114 | 88 | 203 | 3.0 | 10.0 | 0.00 | 0.00 | 0.00 | 17 | 1012.1 |
| 20260904225616 | 88 | 183 | 3.0 | 12.0 | 0.00 | 0.00 | 0.00 | 17 | 1012.2 |
| 20260904225124 | 88 | 174 | 6.0 | 12.0 | 0.00 | 0.00 | 0.00 | 15 | 1012.3 |
| 20260904224653 | 88 | 203 | 4.0 | 18.0 | 0.00 | 0.00 | 0.00 | 16 | 1012.4 |
| 20260904224113 | 88 | 182 | 5.0 | 14.0 | 0.00 | 0.00 | 0.00 | 16 | 1012.3 |
| 20260904223615 | 88 | 190 | 4.0 | 14.0 | 0.00 | 0.00 | 0.00 | 17 | 1012.4 |
| 20260904223117 | 88 | 200 | 3.0 | 17.0 | 0.00 | 0.00 | 0.00 | 17 | 1012.4 |
| 20260904222626 | 87 | 131 | 4.0 | 17.0 | 0.00 | 0.00 | 0.00 | 17 | 1012.6 |
| 20260904222126 | 87 | 165 | 6.0 | 13.0 | 0.00 | 0.00 | 0.00 | 16 | 1012.6 |
| 20260904221635 | 87 | 243 | 7.0 | 13.0 | 0.00 | 0.00 | 0.00 | 16 | 1012.6 |
| 20260904221116 | 87 | 174 | 8.0 | 14.0 | 0.00 | 0.00 | 0.00 | 16 | 1012.8 |
| 20260904220615 | 87 | 161 | 5.0 | 18.0 | 0.00 | 0.00 | 0.00 | 16 | 1012.7 |
| 20260904220121 | 87 | 156 | 9.0 | 18.0 | 0.00 | 0.00 | 0.00 | 16 | 1012.9 |
| 20260904215650 | 87 | 198 | 4.0 | 14.0 | 0.00 | 0.00 | 0.00 | 18 | 1012.7 |
| 20260904215130 | 87 | 155 | 7.0 | 18.0 | 0.00 | 0.00 | 0.00 | 16 | 1013.1 |
| 20260904214611 | 87 | 291 | 9.0 | 18.0 | 0.00 | 0.00 | 0.00 | 16 | 1012.9 |
| 20260904214120 | 86 | 164 | 8.0 | 16.0 | 0.00 | 0.00 | 0.00 | 16 | 1013.0 |
| 20260904213621 | 87 | 221 | 7.0 | 15.0 | 0.00 | 0.00 | 0.00 | 16 | 1013.0 |
| 20260904213130 | 87 | 198 | 8.0 | 13.0 | 0.00 | 0.00 | 0.00 | 16 | 1013.2 |
| 20260904212629 | 87 | 193 | 5.0 | 15.0 | 0.00 | 0.00 | 0.00 | 17 | 1013.1 |
| 20260904212138 | 87 | 125 | 7.0 | 15.0 | 0.00 | 0.00 | 0.00 | 16 | 1013.1 |
| 20260904211638 | 87 | 191 | 5.0 | 13.0 | 0.00 | 0.00 | 0.00 | 17 | 1013.1 |
| 20260904211126 | 87 | 9 | 2.0 | 12.0 | 0.00 | 0.00 | 0.00 | 18 | 1013.2 |
| 20260904210633 | 86 | 191 | 6.0 | 12.0 | 0.00 | 0.00 | 0.00 | 17 | 1013.4 |
| 20260904210135 | 86 | 38 | 6.0 | 13.0 | 0.00 | 0.00 | 0.00 | 17 | 1013.5 |
| 20260904205622 | 86 | 156 | 6.0 | 15.0 | 0.00 | 0.00 | 0.00 | 18 | 1013.5 |
| 20260904205125 | 86 | 214 | 6.0 | 19.0 | 0.00 | 0.00 | 0.00 | 18 | 1013.6 |
| 20260904204627 | 87 | 216 | 4.0 | 17.0 | 0.00 | 0.00 | 0.00 | 18 | 1013.7 |
| 20260904204135 | 86 | 289 | 5.0 | 15.0 | 0.00 | 0.00 | 0.00 | 18 | 1013.6 |
| 20260904203614 | 86 | 129 | 3.0 | 12.0 | 0.00 | 0.00 | 0.00 | 20 | 1013.7 |
| 20260904203123 | 86 | 182 | 5.0 | 14.0 | 0.00 | 0.00 | 0.00 | 19 | 1013.7 |
| 20260904202625 | 86 | 136 | 5.0 | 12.0 | 0.00 | 0.00 | 0.00 | 19 | 1013.8 |
| 20260904202134 | 85 | 290 | 4.0 | 12.0 | 0.00 | 0.00 | 0.00 | 19 | 1013.8 |
| 20260904201614 | 86 | 306 | 4.0 | 12.0 | 0.00 | 0.00 | 0.00 | 20 | 1013.9 |
| 20260904201115 | 85 | 190 | 4.0 | 16.0 | 0.00 | 0.00 | 0.00 | 19 | 1013.9 |
| 20260904200643 | 85 | 139 | 7.0 | 16.0 | 0.00 | 0.00 | 0.00 | 19 | 1013.9 |
| 20260904200145 | 85 | 14 | 3.0 | 11.0 | 0.00 | 0.00 | 0.00 | 20 | 1014.0 |
| 20260904195625 | 84 | 156 | 6.0 | 13.0 | 0.00 | 0.00 | 0.00 | 19 | 1014.1 |
| 20260904195133 | 84 | 201 | 3.0 | 18.0 | 0.00 | 0.00 | 0.00 | 21 | 1014.3 |
| 20260904194618 | 84 | 196 | 5.0 | 18.0 | 0.00 | 0.00 | 0.00 | 20 | 1014.3 |
| 20260904194120 | 84 | 229 | 6.0 | 13.0 | 0.00 | 0.00 | 0.00 | 21 | 1014.4 |
| 20260904193622 | 83 | 301 | 5.0 | 16.0 | 0.00 | 0.00 | 0.00 | 22 | 1014.4 |
| 20260904193130 | 83 | 203 | 6.0 | 16.0 | 0.00 | 0.00 | 0.00 | 22 | 1014.5 |
| 20260904192612 | 83 | 216 | 4.0 | 12.0 | 0.00 | 0.00 | 0.00 | 23 | 1014.5 |
| 20260904192141 | 82 | 207 | 6.0 | 18.0 | 0.00 | 0.00 | 0.00 | 22 | 1014.5 |
| 20260904191623 | 82 | 264 | 9.0 | 18.0 | 0.00 | 0.00 | 0.00 | 21 | 1014.6 |
| 20260904191125 | 82 | 154 | 7.0 | 16.0 | 0.00 | 0.00 | 0.00 | 22 | 1014.6 |
| 20260904190634 | 82 | 139 | 5.0 | 16.0 | 0.00 | 0.00 | 0.00 | 22 | 1014.7 |
| 20260904190114 | 82 | 146 | 5.0 | 15.0 | 0.00 | 0.00 | 0.00 | 22 | 1014.6 |
| 20260904185623 | 82 | 171 | 7.0 | 19.0 | 0.00 | 0.00 | 0.00 | 23 | 1014.6 |
| 20260904185125 | 82 | 204 | 6.0 | 19.0 | 0.00 | 0.00 | 0.00 | 24 | 1014.6 |
| 20260904184633 | 82 | 190 | 7.0 | 13.0 | 0.00 | 0.00 | 0.00 | 22 | 1014.9 |
| 20260904184114 | 81 | 163 | 7.0 | 17.0 | 0.00 | 0.00 | 0.00 | 23 | 1014.8 |
| 20260904183615 | 81 | 150 | 8.0 | 17.0 | 0.00 | 0.00 | 0.00 | 23 | 1015.0 |
| 20260904183143 | 81 | 187 | 7.0 | 16.0 | 0.00 | 0.00 | 0.00 | 24 | 1014.9 |
| 20260904182624 | 81 | 167 | 5.0 | 12.0 | 0.00 | 0.00 | 0.00 | 24 | 1015.0 |
| 20260904182133 | 81 | 53 | 4.0 | 22.0 | 0.00 | 0.00 | 0.00 | 25 | 1015.0 |
| 20260904181613 | 81 | 141 | 5.0 | 22.0 | 0.00 | 0.00 | 0.00 | 25 | 1015.2 |
| 20260904181115 | 81 | 143 | 7.0 | 14.0 | 0.00 | 0.00 | 0.00 | 24 | 1015.2 |
| 20260904180614 | 81 | 174 | 6.0 | 14.0 | 0.00 | 0.00 | 0.00 | 24 | 1015.3 |
| 20260904180120 | 81 | 155 | 3.0 | 12.0 | 0.00 | 0.00 | 0.00 | 24 | 1015.3 |
| 20260904175623 | 80 | 236 | 5.0 | 21.0 | 0.00 | 0.00 | 0.00 | 24 | 1015.3 |
| 20260904175131 | 80 | 200 | 5.0 | 21.0 | 0.00 | 0.00 | 0.00 | 25 | 1015.3 |
| 20260904174613 | 80 | 217 | 6.0 | 12.0 | 0.00 | 0.00 | 0.00 | 25 | 1015.4 |
| 20260904174114 | 80 | 225 | 4.0 | 13.0 | 0.00 | 0.00 | 0.00 | 25 | 1015.4 |
| 20260904173615 | 80 | 44 | 3.0 | 19.0 | 0.00 | 0.00 | 0.00 | 25 | 1015.4 |
| 20260904173144 | 80 | 158 | 5.0 | 19.0 | 0.00 | 0.00 | 0.00 | 25 | 1015.5 |
| 20260904172632 | 80 | 271 | 4.0 | 14.0 | 0.00 | 0.00 | 0.00 | 26 | 1015.4 |
| 20260904172113 | 79 | 207 | 3.0 | 11.0 | 0.00 | 0.00 | 0.00 | 25 | 1015.4 |
| 20260904171614 | 79 | 144 | 4.0 | 12.0 | 0.00 | 0.00 | 0.00 | 25 | 1015.4 |
| 20260904171115 | 79 | 146 | 6.0 | 13.0 | 0.00 | 0.00 | 0.00 | 25 | 1015.4 |
| 20260904170623 | 79 | 142 | 7.0 | 17.0 | 0.00 | 0.00 | 0.00 | 25 | 1015.5 |
| 20260904170126 | 78 | 190 | 7.0 | 17.0 | 0.00 | 0.00 | 0.00 | 26 | 1015.4 |
| 20260904165635 | 78 | 141 | 8.0 | 14.0 | 0.00 | 0.00 | 0.00 | 25 | 1015.3 |
| 20260904165117 | 78 | 216 | 6.0 | 15.0 | 0.00 | 0.00 | 0.00 | 25 | 1015.2 |
| 20260904164619 | 78 | 127 | 9.0 | 19.0 | 0.00 | 0.00 | 0.00 | 24 | 1015.3 |
| 20260904164127 | 78 | 193 | 6.0 | 17.0 | 0.00 | 0.00 | 0.00 | 24 | 1015.3 |
| 20260904163628 | 78 | 241 | 7.0 | 25.0 | 0.00 | 0.00 | 0.00 | 24 | 1015.4 |
| 20260904163129 | 78 | 158 | 7.0 | 25.0 | 0.00 | 0.00 | 0.00 | 24 | 1015.4 |
| 20260904162636 | 78 | 146 | 7.0 | 13.0 | 0.00 | 0.00 | 0.00 | 24 | 1015.4 |
| 20260904162117 | 78 | 188 | 5.0 | 14.0 | 0.00 | 0.00 | 0.00 | 25 | 1015.4 |
| 20260904161620 | 78 | 91 | 7.0 | 18.0 | 0.00 | 0.00 | 0.00 | 25 | 1015.4 |
| 20260904161128 | 78 | 209 | 8.0 | 18.0 | 0.00 | 0.00 | 0.00 | 25 | 1015.4 |
| 20260904160610 | 78 | 176 | 3.0 | 13.0 | 0.00 | 0.00 | 0.00 | 27 | 1015.3 |
| 20260904160112 | 78 | 89 | 3.0 | 13.0 | 0.00 | 0.00 | 0.00 | 27 | 1015.3 |
| 20260904155640 | 77 | 164 | 7.0 | 21.0 | 0.00 | 0.00 | 0.00 | 25 | 1015.2 |
| 20260904155148 | 77 | 179 | 7.0 | 21.0 | 0.00 | 0.00 | 0.00 | 25 | 1015.3 |
| 20260904154656 | 78 | 280 | 7.0 | 17.0 | 0.00 | 0.00 | 0.00 | 25 | 1015.2 |
| 20260904154117 | 77 | 185 | 3.0 | 16.0 | 0.00 | 0.00 | 0.00 | 26 | 1015.2 |
| 20260904153618 | 77 | 131 | 8.0 | 16.0 | 0.00 | 0.00 | 0.00 | 26 | 1015.1 |
| 20260904153119 | 77 | 30 | 5.0 | 16.0 | 0.00 | 0.00 | 0.00 | 26 | 1015.0 |
| 20260904152628 | 77 | 157 | 5.0 | 15.0 | 0.00 | 0.00 | 0.00 | 27 | 1015.1 |
| 20260904152130 | 77 | 250 | 7.0 | 16.0 | 0.00 | 0.00 | 0.00 | 27 | 1015.0 |
| 20260904151611 | 77 | 145 | 6.0 | 16.0 | 0.00 | 0.00 | 0.00 | 27 | 1015.0 |
| 20260904151140 | 76 | 311 | 6.0 | 14.0 | 0.00 | 0.00 | 0.00 | 27 | 1015.0 |
| 20260904150627 | 76 | 188 | 4.0 | 15.0 | 0.00 | 0.00 | 0.00 | 28 | 1015.0 |
| 20260904150128 | 76 | 198 | 6.0 | 15.0 | 0.00 | 0.00 | 0.00 | 28 | 1015.0 |
| 20260904145637 | 76 | 139 | 5.0 | 16.0 | 0.00 | 0.00 | 0.00 | 29 | 1015.0 |
| 20260904145115 | 76 | 226 | 5.0 | 16.0 | 0.00 | 0.00 | 0.00 | 28 | 1015.0 |
| 20260904144624 | 75 | 141 | 7.0 | 21.0 | 0.00 | 0.00 | 0.00 | 28 | 1014.8 |
| 20260904144124 | 75 | 233 | 9.0 | 21.0 | 0.00 | 0.00 | 0.00 | 28 | 1014.7 |
| 20260904143633 | 75 | 155 | 7.0 | 18.0 | 0.00 | 0.00 | 0.00 | 28 | 1014.7 |
| 20260904143114 | 74 | 103 | 5.0 | 13.0 | 0.00 | 0.00 | 0.00 | 28 | 1014.7 |
| 20260904142616 | 73 | 218 | 6.0 | 13.0 | 0.00 | 0.00 | 0.00 | 29 | 1014.8 |
| 20260904142118 | 72 | 99 | 4.0 | 10.0 | 0.00 | 0.00 | 0.00 | 29 | 1014.8 |
| 20260904141647 | 72 | 218 | 4.0 | 15.0 | 0.00 | 0.00 | 0.00 | 29 | 1014.7 |
| 20260904141136 | 72 | 176 | 4.0 | 15.0 | 0.00 | 0.00 | 0.00 | 29 | 1014.7 |
| 20260904140115 | 71 | 193 | 4.0 | 14.0 | 0.00 | 0.00 | 0.00 | 29 | 1014.5 |
| 20260904135643 | 70 | 127 | 6.0 | 14.0 | 0.00 | 0.00 | 0.00 | 28 | 1014.5 |
| 20260904135130 | 70 | 204 | 3.0 | 12.0 | 0.00 | 0.00 | 0.00 | 28 | 1014.5 |
| 20260904134633 | 70 | 195 | 5.0 | 13.0 | 0.00 | 0.00 | 0.00 | 28 | 1014.3 |
| 20260904134114 | 69 | 190 | 3.0 | 13.0 | 0.00 | 0.00 | 0.00 | 28 | 1014.4 |
| 20260904133622 | 68 | 224 | 0.0 | 5.0 | 0.00 | 0.00 | 0.00 | 27 | 1014.2 |
| 20260904133126 | 67 | 137 | 1.0 | 4.0 | 0.00 | 0.00 | 0.00 | 27 | 1014.2 |
| 20260904132647 | 67 | 219 | 1.0 | 5.0 | 0.00 | 0.00 | 0.00 | 26 | 1014.2 |
| 20260904132114 | 67 | 166 | 1.0 | 5.0 | 0.00 | 0.00 | 0.00 | 26 | 1014.0 |
| 20260904131614 | 67 | 133 | 1.0 | 3.0 | 0.00 | 0.00 | 0.00 | 27 | 1014.0 |
| 20260904131144 | 66 | 316 | 1.0 | 3.0 | 0.00 | 0.00 | 0.00 | 27 | 1014.0 |
| 20260904130624 | 66 | 181 | 0.0 | 1.0 | 0.00 | 0.00 | 0.00 | 27 | 1013.9 |
| 20260904130111 | 66 | 127 | 0.0 | 1.0 | 0.00 | 0.00 | 0.00 | 27 | 1013.9 |
| 20260904125641 | 66 | 206 | 0.0 | 2.0 | 0.00 | 0.00 | 0.00 | 27 | 1013.9 |
| 20260904125140 | 66 | 148 | 0.0 | 2.0 | 0.00 | 0.00 | 0.00 | 26 | 1013.8 |
| 20260904124627 | 66 | 176 | 1.0 | 3.0 | 0.00 | 0.00 | 0.00 | 26 | 1013.8 |
| 20260904124129 | 66 | 215 | 1.0 | 3.0 | 0.00 | 0.00 | 0.00 | 25 | 1013.7 |
| 20260904123630 | 66 | 214 | 0.0 | 2.0 | 0.00 | 0.00 | 0.00 | 25 | 1013.7 |
| 20260904123110 | 66 | 142 | 0.0 | 2.0 | 0.00 | 0.00 | 0.00 | 25 | 1013.6 |
| 20260904122619 | 66 | 136 | 0.0 | 2.0 | 0.00 | 0.00 | 0.00 | 25 | 1013.6 |
| 20260904122119 | 66 | 63 | 1.0 | 2.0 | 0.00 | 0.00 | 0.00 | 24 | 1013.5 |
| 20260904121628 | 66 | 72 | 1.0 | 2.0 | 0.00 | 0.00 | 0.00 | 24 | 1013.5 |
| 20260904121130 | 65 | 49 | 0.0 | 2.0 | 0.00 | 0.00 | 0.00 | 23 | 1013.4 |
| 20260904120611 | 65 | 32 | 0.0 | 1.0 | 0.00 | 0.00 | 0.00 | 26 | 1013.4 |
| 20260904120119 | 65 | 305 | 0.0 | 1.0 | 0.00 | 0.00 | 0.00 | 25 | 1013.3 |
| 20260904115620 | 66 | 279 | 0.0 | 2.0 | 0.00 | 0.00 | 0.00 | 23 | 1013.3 |
| 20260904115123 | 66 | 279 | 0.0 | 2.0 | 0.00 | 0.00 | 0.00 | 23 | 1013.2 |
| 20260904114632 | 67 | 98 | 0.0 | 2.0 | 0.00 | 0.00 | 0.00 | 23 | 1013.2 |
| 20260904114114 | 67 | 84 | 0.0 | 3.0 | 0.00 | 0.00 | 0.00 | 22 | 1013.1 |
| 20260904113616 | 68 | 154 | 1.0 | 3.0 | 0.00 | 0.00 | 0.00 | 21 | 1013.1 |
| 20260904113125 | 68 | 110 | 0.0 | 4.0 | 0.00 | 0.00 | 0.00 | 21 | 1013.1 |
| 20260904112625 | 68 | 110 | 1.0 | 4.0 | 0.00 | 0.00 | 0.00 | 21 | 1013.1 |
| 20260904112126 | 68 | 176 | 0.0 | 4.0 | 0.00 | 0.00 | 0.00 | 21 | 1013.1 |
| 20260904111635 | 68 | 148 | 1.0 | 3.0 | 0.00 | 0.00 | 0.00 | 21 | 1013.1 |
| 20260904111117 | 68 | 195 | 1.0 | 3.0 | 0.00 | 0.00 | 0.00 | 21 | 1013.1 |
| 20260904110619 | 69 | 52 | 1.0 | 5.0 | 0.00 | 0.00 | 0.00 | 21 | 1013.1 |
| 20260904110112 | 69 | 157 | 0.0 | 5.0 | 0.00 | 0.00 | 0.00 | 20 | 1013.0 |
| 20260904105612 | 69 | 142 | 1.0 | 4.0 | 0.00 | 0.00 | 0.00 | 20 | 1013.0 |
| 20260904105114 | 69 | 156 | 1.0 | 4.0 | 0.00 | 0.00 | 0.00 | 19 | 1013.0 |
| 20260904104639 | 69 | 121 | 1.0 | 4.0 | 0.00 | 0.00 | 0.00 | 20 | 1012.9 |
| 20260904104121 | 69 | 97 | 1.0 | 3.0 | 0.00 | 0.00 | 0.00 | 19 | 1012.9 |
| 20260904103613 | 69 | 117 | 1.0 | 5.0 | 0.00 | 0.00 | 0.00 | 18 | 1012.7 |
| 20260904103114 | 70 | 107 | 2.0 | 4.0 | 0.00 | 0.00 | 0.00 | 18 | 1012.7 |
| 20260904102615 | 70 | 125 | 1.0 | 4.0 | 0.00 | 0.00 | 0.00 | 18 | 1012.7 |
| 20260904102122 | 70 | 149 | 0.0 | 2.0 | 0.00 | 0.00 | 0.00 | 17 | 1012.7 |
| 20260904101624 | 71 | 129 | 0.0 | 4.0 | 0.00 | 0.00 | 0.00 | 17 | 1012.6 |
| 20260904101125 | 71 | 169 | 1.0 | 7.0 | 0.00 | 0.00 | 0.00 | 16 | 1012.6 |
| 20260904100634 | 71 | 204 | 2.0 | 7.0 | 0.00 | 0.00 | 0.00 | 16 | 1012.4 |
| 20260904100112 | 72 | 143 | 1.0 | 4.0 | 0.00 | 0.00 | 0.00 | 16 | 1012.4 |
| 20260904095620 | 72 | 146 | 1.0 | 5.0 | 0.00 | 0.00 | 0.00 | 16 | 1012.4 |
| 20260904095139 | 72 | 157 | 2.0 | 5.0 | 0.00 | 0.00 | 0.00 | 16 | 1012.4 |
| 20260904094645 | 72 | 128 | 2.0 | 6.0 | 0.00 | 0.00 | 0.00 | 15 | 1012.3 |
| 20260904094134 | 72 | 203 | 2.0 | 6.0 | 0.00 | 0.00 | 0.00 | 15 | 1012.3 |
| 20260904093614 | 73 | 266 | 0.0 | 6.0 | 0.00 | 0.00 | 0.00 | 15 | 1012.2 |
| 20260904093116 | 73 | 139 | 2.0 | 12.0 | 0.00 | 0.00 | 0.00 | 15 | 1012.2 |
| 20260904092624 | 74 | 155 | 4.0 | 12.0 | 0.00 | 0.00 | 0.00 | 14 | 1012.1 |
| 20260904092125 | 74 | 181 | 5.0 | 12.0 | 0.00 | 0.00 | 0.00 | 14 | 1012.1 |
| 20260904091633 | 74 | 183 | 3.0 | 10.0 | 0.00 | 0.00 | 0.00 | 14 | 1012.0 |